Palma de Mallorca, Spain

4:03 AM CEST on July 27, 2017 (GMT +0200)
Palma De Mallorca

Weather History for LEPA - March, 2012

Change the Weather History Date:

Friday, March 9, 2012

  Actual Average Record
Temperature  
Mean Temperature 52 °F -  
Max Temperature 57 °F 63 °F 75 °F (2017)
Min Temperature 47 °F 42 °F 28 °F (2005)
Degree Days  
Heating Degree Days 13    
Growing Degree Days 2 (Base 50)    
Moisture  
Dew Point 38 °F    
Average Humidity 56    
Maximum Humidity 71    
Minimum Humidity 38    
Precipitation  
Precipitation 0.00 in 0.05 in - ()
Sea Level Pressure  
Sea Level Pressure 30.37 in    
Wind  
Wind Speed 15 mph ()    
Max Wind Speed 25 mph    
Max Gust Speed 36 mph    
Visibility 6.7 miles    
Events      
Averages and records for this station are not official NWS values.
T = Trace of Precipitation, MM = Missing Value Source: Averaged Metar Reports

Daily Weather History Graph

Daily Weather History Graph

Search for Another Location

Airport or City:

Trip Planner

Search our weather history database for the weather conditions in past years. The results will help you decide how hot, cold, wet, or windy it might be!

Date:

Astronomy

Mar. 09, 2012 Rise Set
Actual Time 7:09 AM CET 6:50 PM CET
Civil Twilight 6:42 AM CET 7:16 PM CET
Nautical Twilight 6:11 AM CET 7:48 PM CET
Astronomical Twilight 5:40 AM CET 8:19 PM CET
Moon 8:30 PM CET (3/9) 7:19 AM CET (3/9)
Length of Visible Light 12h 34m
Length of Day
11h 40m
Full, 98% of the Moon is Illuminated
Mar 9
Full
Mar 15
Last Quarter
Mar 22
New
Mar 30
First Quarter
Apr 6
Full

Hourly Weather History & Observations

Time (CET) Temp. Dew Point Humidity Pressure Visibility Wind Dir Wind Speed Gust Speed Precip Events Conditions
12:00 AM 53.6 °F 33.8 °F 47% 30.30 in 6.2 mi NNE 19.6 mph 31.1 mph N/A   Partly Cloudy
12:30 AM 53.6 °F 35.6 °F 51% 30.30 in 6.2 mi North 18.4 mph - N/A   Partly Cloudy
1:00 AM 53 °F 35 °F 38% 30.33 in 9 mi NNE 18.4 mph - -   Scattered Clouds
1:00 AM 53.6 °F 35.6 °F 51% 30.33 in 6.2 mi NNE 20.7 mph 32.2 mph N/A   Partly Cloudy
1:30 AM 51.8 °F 33.8 °F 50% 30.33 in 6.2 mi North 16.1 mph 27.6 mph N/A   Partly Cloudy
2:00 AM 51.8 °F 33.8 °F 50% 30.33 in 6.2 mi NNE 17.3 mph 32.2 mph N/A   Partly Cloudy
2:30 AM 51.8 °F 35.6 °F 54% 30.33 in 6.2 mi NNE 16.1 mph - N/A   Partly Cloudy
3:00 AM 51.8 °F 35.6 °F 54% 30.30 in 6.2 mi NNE 15.0 mph - N/A   Partly Cloudy
3:30 AM 51.8 °F 35.6 °F 54% 30.30 in 6.2 mi NNE 15.0 mph - N/A   Partly Cloudy
4:00 AM 50.0 °F 35.6 °F 58% 30.30 in 6.2 mi NNE 18.4 mph - N/A   Partly Cloudy
4:30 AM 50.0 °F 35.6 °F 58% 30.33 in 6.2 mi NNE 16.1 mph - N/A   Partly Cloudy
5:00 AM 51.8 °F 35.6 °F 54% 30.33 in 6.2 mi NNE 13.8 mph - N/A   Partly Cloudy
5:30 AM 50.0 °F 35.6 °F 58% 30.33 in 6.2 mi NNE 9.2 mph - N/A   Partly Cloudy
6:00 AM 48.2 °F 35.6 °F 62% 30.33 in 6.2 mi NNE 17.3 mph - N/A   Partly Cloudy
6:30 AM 50.0 °F 32.0 °F 50% 30.33 in 6.2 mi NNE 13.8 mph - N/A   Partly Cloudy
7:00 AM 50 °F 33 °F 40% 30.34 in 12 mi NNE 11.5 mph - -   Scattered Clouds
7:00 AM 50.0 °F 33.8 °F 54% 30.33 in 6.2 mi North 13.8 mph - N/A   Partly Cloudy
7:30 AM 50.0 °F 33.8 °F 54% 30.33 in 6.2 mi North 11.5 mph - N/A   Partly Cloudy
8:00 AM 50.0 °F 33.8 °F 54% 30.33 in 6.2 mi North 16.1 mph - N/A   Partly Cloudy
8:30 AM 51.8 °F 33.8 °F 50% 30.36 in 6.2 mi NNE 15.0 mph - N/A   Partly Cloudy
9:00 AM 53.6 °F 33.8 °F 47% 30.36 in 6.2 mi NNE 19.6 mph - N/A   Partly Cloudy
9:30 AM 53.6 °F 32.0 °F 44% 30.36 in 6.2 mi NNE 19.6 mph - N/A   Scattered Clouds
10:00 AM 53.6 °F 35.6 °F 51% 30.39 in 6.2 mi NNE 18.4 mph - N/A   Scattered Clouds
10:30 AM 55.4 °F 33.8 °F 44% 30.36 in 6.2 mi NNE 25.3 mph - N/A   Scattered Clouds
11:00 AM 55.4 °F 35.6 °F 47% 30.39 in 6.2 mi NNE 23.0 mph 35.7 mph N/A   Scattered Clouds
11:30 AM 55.4 °F 39.2 °F 54% 30.39 in 6.2 mi NNE 21.9 mph - N/A   Scattered Clouds
12:00 PM 57.2 °F 39.2 °F 51% 30.39 in 6.2 mi North 21.9 mph - N/A   Scattered Clouds
12:30 PM 55.4 °F 39.2 °F 54% 30.39 in 6.2 mi NNE 21.9 mph - N/A   Scattered Clouds
1:00 PM 54 °F 38 °F 43% 30.40 in 12 mi NNE 18.4 mph - -   Mostly Cloudy
1:00 PM 53.6 °F 37.4 °F 54% 30.39 in 6.2 mi NNE 17.3 mph - N/A   Scattered Clouds
1:30 PM 55.4 °F 37.4 °F 51% 30.39 in 6.2 mi NNE 16.1 mph - N/A   Scattered Clouds
2:00 PM 57.2 °F 41.0 °F 55% 30.36 in 6.2 mi NNE 15.0 mph - N/A   Scattered Clouds
2:30 PM 55.4 °F 41.0 °F 58% 30.36 in 6.2 mi NNE 17.3 mph - N/A   Scattered Clouds
3:00 PM 55.4 °F 41.0 °F 58% 30.36 in 6.2 mi NNE 15.0 mph - N/A   Scattered Clouds
3:30 PM 55.4 °F 41.0 °F 58% 30.36 in 6.2 mi NNE 13.8 mph - N/A   Mostly Cloudy
4:00 PM 55.4 °F 41.0 °F 58% 30.36 in 6.2 mi NNE 16.1 mph - N/A   Mostly Cloudy
4:30 PM 55.4 °F 42.8 °F 63% 30.36 in 6.2 mi NNE 16.1 mph - N/A   Scattered Clouds
5:00 PM 55.4 °F 42.8 °F 63% 30.36 in 6.2 mi NNE 15.0 mph - N/A   Scattered Clouds
5:30 PM 55.4 °F 41.0 °F 58% 30.36 in 6.2 mi NNE 16.1 mph - N/A   Partly Cloudy
6:00 PM 53.6 °F 41.0 °F 62% 30.39 in 6.2 mi NNE 15.0 mph - N/A   Partly Cloudy
6:30 PM 53.6 °F 41.0 °F 62% 30.39 in 6.2 mi NNE 15.0 mph - N/A   Partly Cloudy
7:00 PM 53 °F 42 °F 55% 30.42 in 16 mi NE 8.1 mph - -   Scattered Clouds
7:00 PM 51.8 °F 41.0 °F 67% 30.42 in 6.2 mi NNE 12.7 mph - N/A   Partly Cloudy
7:30 PM 51.8 °F 41.0 °F 67% 30.42 in 6.2 mi NNE 13.8 mph - N/A   Partly Cloudy
8:00 PM 51.8 °F 41.0 °F 67% 30.42 in 6.2 mi North 10.4 mph - N/A   Partly Cloudy
8:30 PM 51.8 °F 41.0 °F 67% 30.42 in 6.2 mi North 9.2 mph - N/A   Partly Cloudy
9:00 PM 51.8 °F 41.0 °F 67% 30.42 in 6.2 mi North 9.2 mph - N/A   Partly Cloudy
9:30 PM 51.8 °F 41.0 °F 67% 30.45 in 6.2 mi North 10.4 mph - N/A   Partly Cloudy
10:00 PM 53.6 °F 41.0 °F 62% 30.45 in 6.2 mi North 9.2 mph - N/A   Scattered Clouds
10:30 PM 51.8 °F 41.0 °F 67% 30.45 in 6.2 mi North 10.4 mph - N/A   Partly Cloudy
11:00 PM 51.8 °F 41.0 °F 67% 30.45 in 6.2 mi North 9.2 mph - N/A   Partly Cloudy
11:30 PM 50.0 °F 41.0 °F 71% 30.45 in 6.2 mi NNE 10.4 mph - N/A   Partly Cloudy